Weather History for Nantucket, MA

Change the Weather History Date:

Tuesday, January 22, 2013

  Actual Average Record
Temperature  
Mean Temperature 24 °F -  
Max Temperature 30 °F 38 °F 51 °F (1958)
Min Temperature 18 °F 21 °F 2 °F (1970)
Degree Days  
Heating Degree Days 40    
Moisture  
Dew Point 19 °F    
Average Humidity 77    
Maximum Humidity 100    
Minimum Humidity 33    
Precipitation  
Precipitation 0.01 in - - ()
Sea Level Pressure  
Sea Level Pressure 29.80 in    
Wind  
Wind Speed 12 mph (NW)    
Max Wind Speed 23 mph    
Max Gust Speed 30 mph    
Visibility 6 miles    
Events Snow    
Averages and records for this station are not official NWS values.
T = Trace of Precipitation, MM = Missing Value Source: NWS Daily Summary

Daily Weather History Graph

Daily Weather History Graph

Search for Another Location

Airport:

Trip Planner

Search our weather history database for the weather conditions in past years. The results will help you decide how hot, cold, wet, or windy it might be!

Date:

Astronomy

Jan. 22, 2013 Rise Set
Actual Time 6:59 AM EST 4:44 PM EST
Civil Twilight 6:29 AM EST 5:14 PM EST
Nautical Twilight 5:56 AM EST 5:48 PM EST
Astronomical Twilight 5:23 AM EST 6:20 PM EST
Moon 1:04 PM EST (1/22) 3:18 AM EST (1/22)
Length of Visible Light 10h 44m
Length of Day
9h 45m
Waxing Gibbous, 82% of the Moon is Illuminated
Jan 22
Waxing Gibbous
Jan 26
Full
Feb 3
Last Quarter
Feb 10
New
Feb 17
First Quarter

Hourly Weather History & Observations

Time (EST) Temp. Windchill Dew Point Humidity Pressure Visibility Wind Dir Wind Speed Gust Speed Precip Events Conditions
12:12 AM 30.2 °F 20.8 °F 28.4 °F 93% 29.73 in 1.0 mi North 11.5 mph - 0.00 in Snow Light Snow
12:19 AM 30.2 °F 20.8 °F 30.2 °F 100% 29.72 in 1.2 mi North 11.5 mph - 0.00 in Snow Light Snow
12:29 AM 30.2 °F 20.8 °F 28.4 °F 93% 29.72 in 2.0 mi North 11.5 mph - 0.00 in Snow Light Snow
12:33 AM 30.2 °F 20.8 °F 28.4 °F 93% 29.72 in 1.8 mi North 11.5 mph - 0.00 in Snow Light Snow
12:51 AM 30.2 °F 19.8 °F 28.4 °F 93% 29.73 in 2.0 mi NNW 13.8 mph - 0.00 in Snow Light Snow
12:53 AM 30.0 °F 19.1 °F 28.0 °F 92% 29.73 in 2.5 mi NNW 15.0 mph - 0.00 in Snow Light Snow
1:01 AM 30.2 °F 20.8 °F 28.4 °F 93% 29.73 in 3.0 mi NNW 11.5 mph - 0.00 in Snow Light Snow
1:31 AM 28.4 °F 19.7 °F 26.6 °F 93% 29.74 in 1.5 mi NNW 9.2 mph - 0.00 in Snow Light Snow
1:40 AM 28.4 °F 19.7 °F 28.4 °F 100% 29.75 in 1.2 mi North 9.2 mph - 0.00 in Snow Light Snow
1:48 AM 28.4 °F 18.5 °F 26.6 °F 93% 29.75 in 2.0 mi NNW 11.5 mph - 0.00 in Snow Light Snow
1:53 AM 28.9 °F 21.9 °F 27.0 °F 92% 29.75 in 3.0 mi NNW 6.9 mph - 0.00 in Snow Light Snow
2:21 AM 28.4 °F 19.7 °F 26.6 °F 93% 29.74 in 2.5 mi NNW 9.2 mph - 0.00 in Snow Light Snow
2:38 AM 28.4 °F 19.1 °F 26.6 °F 93% 29.72 in 1.8 mi NNW 10.4 mph - 0.00 in Snow Light Snow
2:53 AM 28.9 °F 19.2 °F 27.0 °F 92% 29.72 in 2.0 mi NNW 11.5 mph - 0.00 in Snow Light Snow
3:05 AM 28.4 °F 18.5 °F 26.6 °F 93% 29.71 in 1.2 mi NNW 11.5 mph - 0.00 in Snow Light Snow
3:17 AM 28.4 °F 18.0 °F 26.6 °F 93% 29.72 in 2.5 mi NNW 12.7 mph - 0.01 in Snow Light Snow
3:20 AM 28.4 °F 18.0 °F 26.6 °F 93% 29.72 in 3.0 mi NNW 12.7 mph - 0.01 in Snow Light Snow
3:36 AM 28.4 °F 18.5 °F 26.6 °F 93% 29.72 in 7.0 mi North 11.5 mph - 0.01 in Snow Light Snow
3:42 AM 28.4 °F 19.1 °F 26.6 °F 93% 29.71 in 4.0 mi NW 10.4 mph - 0.01 in Snow Light Snow
3:48 AM 28.4 °F 18.0 °F 26.6 °F 93% 29.70 in 2.5 mi NNW 12.7 mph - 0.01 in Snow Light Snow
3:53 AM 28.9 °F 19.8 °F 27.0 °F 92% 29.70 in 2.0 mi NNW 10.4 mph - 0.01 in Snow Light Snow
4:11 AM 28.4 °F 19.7 °F 26.6 °F 93% 29.70 in 2.0 mi NW 9.2 mph - 0.00 in Snow Light Snow
4:20 AM 28.4 °F 21.2 °F 26.6 °F 93% 29.70 in 5.0 mi NW 6.9 mph - 0.00 in Snow Light Snow
4:48 AM 28.4 °F 18.5 °F 26.6 °F 93% 29.71 in 7.0 mi NW 11.5 mph - 0.00 in   Overcast
4:53 AM 28.0 °F 18.1 °F 26.1 °F 92% 29.71 in 6.0 mi WNW 11.5 mph - 0.00 in Snow Light Snow
5:27 AM 26.6 °F 16.8 °F 24.8 °F 93% 29.72 in 10.0 mi WNW 10.4 mph - 0.00 in   Mostly Cloudy
5:40 AM 26.6 °F 15.2 °F 24.8 °F 93% 29.73 in 10.0 mi West 13.8 mph - 0.00 in Snow Light Snow
5:53 AM 26.1 °F 16.2 °F 23.0 °F 88% 29.73 in 9.0 mi WNW 10.4 mph - 0.00 in   Mostly Cloudy
6:53 AM 26.1 °F 14.0 °F 21.0 °F 81% 29.75 in 10.0 mi WNW 15.0 mph - N/A   Overcast
7:53 AM 26.1 °F 14.0 °F 19.9 °F 78% 29.78 in 10.0 mi WNW 15.0 mph - N/A   Overcast
8:53 AM 24.1 °F 10.1 °F 17.1 °F 75% 29.81 in 8.0 mi NW 18.4 mph 27.6 mph N/A   Mostly Cloudy
9:16 AM 24.8 °F 9.6 °F 15.8 °F 69% 29.82 in 8.0 mi NW 23.0 mph 28.8 mph N/A   Mostly Cloudy
9:53 AM 24.1 °F 10.1 °F 15.1 °F 69% 29.83 in 7.0 mi WNW 18.4 mph 27.6 mph N/A   Scattered Clouds
10:53 AM 24.1 °F 9.0 °F 14.0 °F 65% 29.84 in 7.0 mi WNW 21.9 mph 28.8 mph 0.00 in   Partly Cloudy
11:53 AM 24.1 °F 10.6 °F 12.0 °F 60% 29.85 in 8.0 mi WNW 17.3 mph 28.8 mph 0.00 in   Partly Cloudy
12:53 PM 25.0 °F 11.7 °F 9.0 °F 51% 29.86 in 10.0 mi WNW 17.3 mph 29.9 mph N/A   Partly Cloudy
1:53 PM 25.0 °F 10.9 °F 5.0 °F 43% 29.86 in 10.0 mi WNW 19.6 mph 27.6 mph N/A   Partly Cloudy
2:53 PM 23.0 °F 10.6 °F 3.0 °F 42% 29.89 in 10.0 mi West 13.8 mph 25.3 mph N/A   Partly Cloudy
3:53 PM 21.9 °F 8.2 °F 1.9 °F 42% 29.90 in 10.0 mi West 16.1 mph - N/A   Scattered Clouds
4:53 PM 21.0 °F 9.3 °F 1.0 °F 42% 29.94 in 10.0 mi West 11.5 mph - N/A   Clear
5:53 PM 19.9 °F 8.6 °F 1.0 °F 44% 29.96 in 10.0 mi West 10.4 mph - N/A   Clear
6:53 PM 21.9 °F 11.0 °F 3.9 °F 46% 29.99 in 10.0 mi WNW 10.4 mph - N/A   Overcast
7:53 PM 21.0 °F 6.6 °F 1.0 °F 42% 30.00 in 10.0 mi NW 17.3 mph 23.0 mph N/A   Overcast
8:53 PM 19.9 °F 5.7 °F 1.0 °F 44% 30.02 in 10.0 mi NW 16.1 mph - N/A   Scattered Clouds
9:53 PM 19.9 °F 4.3 °F -5.1 °F 33% 30.04 in 10.0 mi WNW 19.6 mph 25.3 mph N/A   Clear
10:53 PM 19.0 °F 5.6 °F -5.1 °F 34% 30.05 in 10.0 mi NW 13.8 mph 23.0 mph N/A   Clear
11:53 PM 18.0 °F 1.7 °F 1.0 °F 48% 30.05 in 10.0 mi NW 19.6 mph 26.5 mph N/A   Partly Cloudy